Location: Unspecified
(56.5167°N, 0.0000°E)
Time: 01:37:53
(UTC+02:00)

Resurs 1-4 Rocket - Visible Passes

Search period start: 22 October 2019 00:00
Search period end: 31 October 2019 23:00
Orbit: 800 x 813 km, 98.6° (Epoch: 20 October)

Date Brightness Start Highest point End Pass type
(mag) Time Alt. Az. Time Alt. Az. Time Alt. Az.
22 Oct 4.8 02:36:53 10° NE 02:37:39 13° NE 02:37:39 13° NE visible
22 Oct 3.7 04:16:06 10° NNE 04:18:43 30° NNE 04:18:43 30° NNE visible
22 Oct 3.7 05:56:41 10° N 05:59:48 21° NW 05:59:48 21° NW visible
23 Oct 4.0 03:51:29 10° NNE 03:53:43 26° NNE 03:53:43 26° NNE visible
23 Oct 3.6 05:31:48 10° N 05:34:48 25° NNW 05:34:48 25° NNW visible
24 Oct 4.4 03:26:58 10° NNE 03:28:43 20° NNE 03:28:43 20° NNE visible
24 Oct 3.5 05:06:59 10° N 05:09:48 28° NNW 05:09:48 28° NNW visible
24 Oct 4.1 06:48:30 10° NNW 06:50:29 12° NW 06:50:52 12° NW visible
25 Oct 4.7 03:02:32 10° NNE 03:03:44 16° NE 03:03:44 16° NE visible
25 Oct 3.7 04:42:15 10° N 04:44:48 28° N 04:44:48 28° N visible
25 Oct 3.9 06:23:12 10° N 06:25:52 16° NW 06:25:52 16° NW visible
26 Oct 5.0 02:38:18 10° NE 02:38:43 12° NE 02:38:43 12° NE visible
26 Oct 3.9 04:17:34 10° NNE 04:19:48 26° NNE 04:19:48 26° NNE visible
26 Oct 3.8 05:58:10 10° N 06:00:52 20° NNW 06:00:52 20° NNW visible
27 Oct 4.2 02:52:57 10° NNE 02:54:48 22° NNE 02:54:48 22° NNE visible
27 Oct 3.7 04:33:17 10° N 04:35:52 23° NNW 04:35:52 23° NNW visible
28 Oct 4.6 02:28:25 10° NNE 02:29:48 18° NNE 02:29:48 18° NNE visible
28 Oct 3.8 04:08:28 10° N 04:10:52 24° N 04:10:52 24° N visible
28 Oct 4.1 05:50:01 10° NNW 05:51:56 12° NW 05:51:56 12° NW visible
29 Oct 4.8 02:04:00 10° NNE 02:04:48 14° NE 02:04:48 14° NE visible
29 Oct 3.9 03:43:43 10° N 03:45:52 24° N 03:45:52 24° N visible
29 Oct 4.0 05:24:41 10° N 05:26:57 15° NNW 05:26:57 15° NNW visible
30 Oct 5.1 01:39:44 10° NE 01:39:48 10° NE 01:39:48 10° NE visible
30 Oct 4.2 03:19:02 10° NNE 03:20:52 22° NNE 03:20:52 22° NNE visible
30 Oct 3.9 04:59:39 10° N 05:01:56 18° NNW 05:01:56 18° NNW visible
31 Oct 4.4 02:54:24 10° NNE 02:55:53 19° NNE 02:55:53 19° NNE visible
31 Oct 3.9 04:34:45 10° N 04:36:56 21° NNW 04:36:56 21° NNW visible
